Location: Unspecified
(0.0000°N, 0.0000°E)
Time: 09:47:06
(UTC+00:00)

Vanguard 3 - Pass Details

Date: 07 October 2022
Orbit: 509 x 3255 km, 33.3° (Epoch: 29 November)

Event Time Altitude Azimuth Distance (km) Brightness Sun altitude
Rises 22:26:41 0° 223° (SW) 7,053 12.2 -69.0°
Reaches altitude 10° 22:34:53 10° 205° (SSW) 5,638 11.5 -70.9°
Enters shadow 22:38:40 14° 193° (SSW) 5,056 11.2 -71.8°
